Location: Bouchavesnes-Bergen
(49.9859°N, 2.9203°E)
Time: 16:39:45
(UTC+00:00)

Cosmos 1500 - Visible Passes

Search period start: 24 June 2021 00:00
Search period end: 04 July 2021 00:00
Orbit: 497 x 518 km, 82.5° (Epoch: 24 June)

Date Brightness Start Highest point End Pass type
(mag) Time Alt. Az. Time Alt. Az. Time Alt. Az.
27 Jun 5.9 02:41:51 10° ESE 02:44:08 16° E 02:46:25 10° NE visible
28 Jun 6.0 02:25:05 10° ESE 02:26:43 13° E 02:28:21 10° ENE visible
02 Jul 4.0 02:48:07 10° S 02:51:44 49° E 02:55:23 10° NNE visible
03 Jul 4.5 02:30:47 10° SSE 02:34:15 38° E 02:37:47 10° NNE visible
